Flag for Poland Weather past 2 weeks in Włocławek, Poland

Now
30 °F

Chilly.


Feels Like: 27 °F
Forecast: 26 / 36 °F
Wind: 3 mph from South

Location: Plock

Current Time: Jan 26, 2015 at 10:09:44 PM

Latest Report: Jan 26, 2015 at 9:00 PM


Visibility: 13 mi

Pressure: 30.09 "Hg

Humidity: 72%

Dew point: 22 °F

Location of WłocławekLocation

Historic Weather in Włocławek — Graph

°F

Włocławek temperature yesterday

Maximum temperature yesterday: 30 °F (at 12:00 AM)
Minimum temperature yesterday: 24 °F (at 11:00 PM)
Average temperature yesterday: 28 °F

Past Weeks' High & Low Weather Summary

 TemperatureHumidityPressure
High50 °F (Jan 16, 1:00 PM)100% (Jan 19, 2:00 AM)30.27 "Hg (Jan 19, 2:00 AM)
Low24 °F (Jan 25, 11:00 PM)58% (Jan 13, 11:00 PM)29.72 "Hg (Jan 17, 7:00 AM)
Average35 °F89%30.00 "Hg
* Reported Jan 12 11:00 AM — Jan 26 8:00 PM, Włocławek, Weather by CustomWeather, © 2014

Note: Actual official high and low records may vary slightly from our data, if they occured in-between our weather recording intervals... More about our weather records

Advertising

Włocławek weather history for previous 24 hours

 ConditionsComfort  
Time TempWeatherWind HumidityBarometerVisibility
8:00 PM
Jan 26
31 °FChilly.3 mph72%30.11 "Hg12 mi
7:00 PM31 °FChilly.3 mph75%30.13 "Hg7 mi
6:00 PM31 °FChilly.3 mph76%30.14 "Hg7 mi
5:00 PM32 °FFog.3 mph73%30.16 "Hg6 mi
4:00 PM32 °FFog.3 mph84%30.17 "Hg4 mi
3:00 PM32 °FFog.2 mph89%30.19 "Hg3 mi
2:00 PM32 °FFog.3 mph89%30.20 "Hg4 mi
1:00 PM33 °FFog.3 mph91%30.22 "Hg3 mi
12:00 PM33 °FFog.2 mph93%30.24 "Hg2 mi
11:00 AM32 °FFog.3 mph94%30.25 "Hg2 mi
10:00 AM32 °FFog.3 mph95%30.26 "Hg2 mi
9:00 AM31 °FFog.2 mph96%30.27 "Hg2 mi
8:00 AM31 °FFog.2 mph97%30.27 "Hg2 mi
7:00 AM31 °FFog.2 mph97%30.26 "Hg1 mi
6:00 AM31 °FChilly.2 mph97%30.26 "Hg1 mi
5:00 AM31 °FFog.2 mph98%30.25 "Hg1 mi
3:00 AM29 °FFog.1 mph98%30.25 "Hg1 mi
2:00 AM29 °FFog.2 mph98%30.25 "Hg1 mi
1:00 AM28 °FFog.1 mph98%30.24 "Hg1 mi
12:00 AM26 °FFog.1 mph98%30.25 "Hg1 mi
11:00 PM
Jan 25
24 °FCold.1 mph97%30.25 "Hg1 mi
10:00 PM25 °FDuststorm.1 mph96%30.24 "Hg0 mi
Weather by CustomWeather, © 2014

See weather overviewHow to use our weather pages